AP893 Weather Reports


time (UTC)temp
F
wind
direction
speed
knots
gust
knots
rain 1hr
in
rain 24hr
in
rain mn
in
humidity
%
barometer
mb
20260902030009 63 344 0.0 0.0 0.00 0.00 0.00 48 1018.4
20260902025010 63 344 0.0 0.0 0.00 0.00 0.00 47 1018.4
20260902023009 65 344 0.0 0.0 0.00 0.00 0.00 46 1018.2
20260902021009 66 344 0.0 0.0 0.00 0.00 0.00 44 1018.0
20260902020009 67 344 0.0 0.0 0.00 0.00 0.00 43 1017.9
20260902013010 68 311 0.0 5.2 0.00 0.00 0.00 41 1018.0
20260902012009 68 332 0.0 7.8 0.00 0.00 0.00 40 1018.0
20260902011009 69 8 1.7 6.1 0.00 0.00 0.00 39 1018.1
20260902010009 70 287 0.9 8.7 0.00 0.00 0.00 38 1018.1
20260902003010 72 0 1.7 6.1 0.00 0.00 0.00 36 1018.1
20260902001009 74 250 0.0 5.2 0.00 0.00 0.00 34 1018.3
20260902000009 74 271 0.0 7.8 0.00 0.00 0.00 33 1018.4
20260901235009 74 239 0.9 8.7 0.00 0.00 0.00 33 1018.5
20260901233010 75 229 0.0 4.3 0.00 0.00 0.00 33 1018.5
20260901232009 75 289 0.9 7.0 0.00 0.00 0.00 32 1018.5
20260901231009 75 282 0.0 7.0 0.00 0.00 0.00 32 1018.6
20260901230010 75 114 0.9 5.2 0.00 0.00 0.00 34 1018.5
20260901225010 74 347 1.7 7.8 0.00 0.00 0.00 35 1018.6
20260901224010 73 297 0.9 10.4 0.00 0.00 0.00 35 1018.6
20260901223010 73 311 0.0 7.0 0.00 0.00 0.00 36 1018.6
20260901222010 73 16 0.9 7.8 0.00 0.00 0.00 36 1018.8
20260901220009 75 123 2.6 7.8 0.00 0.00 0.00 34 1018.9
20260901215010 74 0 1.7 12.2 0.00 0.00 0.00 34 1019.0
20260901214009 74 255 1.7 11.3 0.00 0.00 0.00 34 1019.0
20260901213009 74 5 0.9 6.1 0.00 0.00 0.00 35 1019.0
20260901212010 74 209 4.3 10.4 0.00 0.00 0.00 34 1018.9
20260901211010 75 253 0.0 7.8 0.00 0.00 0.00 33 1019.0
20260901210010 75 73 1.7 7.0 0.00 0.00 0.00 33 1018.9
20260901205010 76 347 2.6 8.7 0.00 0.00 0.00 28 1018.9
20260901204009 77 321 2.6 8.7 0.00 0.00 0.00 28 1018.8
20260901203010 77 143 2.6 7.8 0.00 0.00 0.00 28 1018.8
20260901202010 77 170 1.7 7.8 0.00 0.00 0.00 27 1018.8
20260901201009 77 295 0.9 7.8 0.00 0.00 0.00 28 1018.8
20260901200011 76 341 0.9 7.0 0.00 0.00 0.00 28 1019.0
20260901193009 76 312 0.9 6.1 0.00 0.00 0.00 29 1019.2
20260901192009 75 13 0.0 7.8 0.00 0.00 0.00 29 1019.2
20260901191009 74 185 0.9 7.8 0.00 0.00 0.00 31 1019.2
20260901185010 71 250 1.7 7.8 0.00 0.00 0.00 44 1019.3
20260901184009 71 16 2.6 7.8 0.00 0.00 0.00 46 1019.2
20260901182010 68 354 1.7 7.8 0.00 0.00 0.00 51 1019.2
20260901181009 67 221 1.7 10.4 0.00 0.00 0.00 54 1019.2
20260901180009 66 335 0.0 8.7 0.00 0.00 0.00 56 1019.1
20260901175010 65 326 1.7 10.4 0.00 0.00 0.00 58 1019.2
20260901174010 64 1 7.0 11.3 0.00 0.00 0.00 60 1019.0
20260901173010 63 1 1.7 11.3 0.00 0.00 0.00 62 1018.9
20260901172010 63 41 2.6 7.0 0.00 0.00 0.00 63 1018.9
20260901170011 62 328 5.2 12.2 0.00 0.00 0.00 64 1018.8
20260901165009 61 353 4.3 11.3 0.00 0.00 0.00 64 1018.6
20260901163009 61 313 0.9 7.0 0.00 0.00 0.00 65 1018.4
20260901162009 61 351 1.7 6.1 0.00 0.00 0.00 64 1018.2
20260901160009 61 0 0.0 4.3 0.00 0.00 0.00 68 1018.1
20260901155010 59 357 0.0 5.2 0.00 0.00 0.00 72 1018.0
20260901153010 58 86 0.0 0.0 0.00 0.00 0.00 77 1017.5
20260901150009 55 86 0.0 0.0 0.00 0.00 0.00 90 1017.3
20260901145010 54 86 0.0 0.0 0.00 0.00 0.00 92 1017.3
20260901144009 53 86 0.0 0.0 0.00 0.00 0.00 94 1017.2
20260901143009 52 86 0.0 0.0 0.00 0.00 0.00 94 1017.2
20260901142009 51 86 0.0 0.0 0.00 0.00 0.00 92 1017.1
20260901141010 51 86 0.0 0.0 0.00 0.00 0.00 92 1017.1
20260901135010 51 86 0.0 0.0 0.00 0.00 0.00 90 1017.0
20260901134009 52 86 0.0 0.0 0.00 0.00 0.00 88 1017.0
20260901132009 52 86 0.0 0.0 0.00 0.00 0.00 83 1016.8
20260901131010 52 86 0.0 0.0 0.00 0.00 0.00 77 1016.9
20260901130009 53 86 0.0 0.0 0.00 0.00 0.00 73 1016.8
20260901125012 52 86 0.0 0.0 0.00 0.00 0.00 72 1016.4
20260901124009 52 86 0.0 4.3 0.00 0.00 0.00 74 1016.2
20260901122009 52 104 0.0 0.0 0.00 0.00 0.00 73 1016.2
20260901121009 52 104 0.0 0.0 0.00 0.00 0.00 72 1016.2
20260901120009 52 104 0.0 0.0 0.00 0.00 0.00 72 1016.2
20260901114009 53 113 0.9 2.6 0.00 0.00 0.00 72 1016.2
20260901113009 53 89 0.0 0.0 0.00 0.00 0.00 72 1016.2
20260901112009 53 89 0.0 0.0 0.00 0.00 0.00 72 1016.2
20260901111009 53 89 0.0 0.0 0.00 0.00 0.00 71 1016.0
20260901110010 53 89 0.0 0.0 0.00 0.00 0.00 71 1015.9
20260901105009 54 89 0.0 0.0 0.00 0.00 0.00 72 1015.9
20260901103009 54 89 0.0 0.0 0.00 0.00 0.00 71 1016.1
20260901101010 54 89 0.0 0.0 0.00 0.00 0.00 70 1016.1
20260901100009 55 89 0.0 0.0 0.00 0.00 0.00 69 1016.1
20260901095010 55 89 0.0 0.0 0.00 0.00 0.00 70 1016.2
20260901094010 55 89 0.0 0.0 0.00 0.00 0.00 69 1016.3
20260901093009 56 89 0.0 0.0 0.00 0.00 0.00 68 1016.3
20260901092010 56 89 0.0 0.0 0.00 0.00 0.00 67 1016.3
20260901091010 56 89 0.0 0.0 0.00 0.00 0.00 67 1016.3
20260901090009 56 89 0.0 4.3 0.00 0.00 0.00 67 1016.3
20260901085010 56 140 0.0 0.0 0.00 0.00 0.00 69 1016.4
20260901083010 56 140 0.0 0.0 0.00 0.00 0.00 68 1016.6
20260901082009 56 140 0.0 0.0 0.00 0.00 0.00 68 1016.7
20260901081010 56 140 0.0 0.0 0.00 0.00 0.00 68 1016.8
20260901080009 56 140 0.0 0.0 0.00 0.00 0.00 67 1016.9
20260901075010 57 140 0.0 0.0 0.00 0.00 0.00 65 1016.9
20260901074009 57 140 0.0 0.0 0.00 0.00 0.00 64 1016.9
20260901073010 57 140 0.0 0.0 0.00 0.00 0.00 63 1016.9
20260901072009 57 140 0.0 0.0 0.00 0.00 0.00 63 1016.8
20260901071010 57 140 0.0 0.0 0.00 0.00 0.00 63 1016.8
20260901070010 57 140 0.0 2.6 0.00 0.00 0.00 63 1016.7
20260901065010 57 224 0.9 2.6 0.00 0.00 0.00 62 1016.6
20260901064010 58 215 0.0 0.0 0.00 0.00 0.00 61 1016.6
20260901063010 58 215 0.0 0.0 0.00 0.00 0.00 61 1016.4
20260901062009 58 215 0.0 0.0 0.00 0.00 0.00 60 1016.4
20260901060009 59 215 0.0 0.0 0.00 0.00 0.00 59 1016.6
20260901055009 59 215 0.0 0.0 0.00 0.00 0.00 57 1016.6
20260901053010 61 215 0.0 0.0 0.00 0.00 0.00 54 1016.8
20260901051009 62 215 0.0 0.0 0.00 0.00 0.00 53 1016.9
20260901050009 63 215 0.0 0.0 0.00 0.00 0.00 51 1016.8
20260901045010 63 215 0.0 0.0 0.00 0.00 0.00 50 1016.8
20260901044010 64 215 0.0 0.0 0.00 0.00 0.00 47 1016.7
20260901043010 65 215 0.0 0.0 0.00 0.00 0.00 45 1016.7
20260901042009 66 215 0.0 0.0 0.00 0.00 0.00 44 1016.6
20260901040009 67 215 0.0 0.0 0.00 0.00 0.00 42 1016.4
20260901035010 67 215 0.0 0.0 0.00 0.00 0.00 41 1016.3
20260901034009 68 215 0.0 0.0 0.00 0.00 0.00 40 1016.2
20260901033010 69 215 0.0 0.0 0.00 0.00 0.00 39 1016.3
20260901032010 70 215 0.0 0.0 0.00 0.00 0.00 38 1016.2